New River MCAS, NC

7:49 AM EST on December 12, 2017 (GMT -0500)
New River Marine Corps Air Station

Weather History for KNCA - February, 2013

Change the Weather History Date:

Saturday, February 23, 2013

  Actual Average Record
Temperature  
Mean Temperature 45 °F -  
Max Temperature 48 °F 57 °F 77 °F (2012)
Min Temperature 42 °F 37 °F 21 °F (1999)
Degree Days  
Heating Degree Days 20    
Moisture  
Dew Point 44 °F    
Average Humidity 92    
Maximum Humidity 100    
Minimum Humidity 87    
Precipitation  
Precipitation 0.58 in - - ()
Sea Level Pressure  
Sea Level Pressure 29.94 in    
Wind  
Wind Speed 5 mph (NW)    
Max Wind Speed 9 mph    
Max Gust Speed -    
Visibility 3 miles    
Events Fog , Rain    
Averages and records for this station are not official NWS values.
T = Trace of Precipitation, MM = Missing Value Source: NWS Daily Summary

Daily Weather History Graph

Daily Weather History Graph

Search for Another Location

Airport or City:

Trip Planner

Search our weather history database for the weather conditions in past years. The results will help you decide how hot, cold, wet, or windy it might be!

Date:

Astronomy

Feb. 23, 2013 Rise Set
Actual Time 6:46 AM EST 6:00 PM EST
Civil Twilight 6:20 AM EST 6:26 PM EST
Nautical Twilight 5:51 AM EST 6:55 PM EST
Astronomical Twilight 5:22 AM EST 7:24 PM EST
Moon 4:11 PM EST (2/23) 5:04 AM EST (2/23)
Length of Visible Light 12h 05m
Length of Day
11h 14m
Waxing Gibbous, 95% of the Moon is Illuminated
Feb 23
Waxing Gibbous
Feb 25
Full
Mar 4
Last Quarter
Mar 11
New
Mar 19
First Quarter

Hourly Weather History & Observations

Time (EST) Temp. Windchill Dew Point Humidity Pressure Visibility Wind Dir Wind Speed Gust Speed Precip Events Conditions
12:56 AM 48.0 °F - 45.0 °F 89% 30.09 in 7.0 mi North 4.6 mph - 0.00 in Rain Light Rain
1:56 AM 48.0 °F - 45.0 °F 89% 30.05 in 6.0 mi North 4.6 mph - 0.01 in Rain Light Rain
2:08 AM 48.2 °F - 44.6 °F 87% 30.04 in 2.5 mi NNW 4.6 mph - 0.05 in Rain Light Rain
2:16 AM 48.2 °F - 44.6 °F 87% 30.03 in 6.0 mi North 3.5 mph - 0.05 in Rain Light Rain
2:56 AM 48.0 °F - 45.0 °F 89% 30.01 in 6.0 mi North 3.5 mph - 0.05 in Rain Light Rain
3:30 AM 48.2 °F - 44.6 °F 87% 29.98 in 6.0 mi North 3.5 mph - 0.01 in   Overcast
3:56 AM 46.9 °F - 44.1 °F 90% 29.98 in 4.0 mi NW 3.5 mph - 0.01 in   Overcast
4:32 AM 46.4 °F 45.2 °F 44.6 °F 93% 29.97 in 2.5 mi NW 3.5 mph - 0.00 in Rain Light Rain
4:39 AM 46.4 °F 45.2 °F 44.6 °F 93% 29.97 in 1.8 mi NW 3.5 mph - 0.00 in Rain Light Rain
4:56 AM 46.0 °F 44.8 °F 44.1 °F 93% 29.97 in 1.2 mi NNW 3.5 mph - 0.00 in Rain Light Rain
5:06 AM 46.4 °F 43.5 °F 44.6 °F 93% 29.97 in 1.0 mi NNW 5.8 mph - 0.00 in   Overcast
5:20 AM 46.4 °F 42.9 °F 44.6 °F 93% 29.97 in 0.8 mi NW 6.9 mph - 0.00 in   Mist
5:43 AM 46.4 °F 41.9 °F 42.8 °F 87% 29.97 in 0.5 mi NW 9.2 mph - 0.00 in Fog Fog
6:03 AM 44.6 °F 40.2 °F 42.8 °F 93% 29.97 in 0.8 mi NW 8.1 mph - 0.00 in Rain Light Rain
6:17 AM 44.6 °F 40.2 °F 42.8 °F 93% 29.98 in 0.5 mi NW 8.1 mph - 0.01 in Fog , Rain Light Rain
6:29 AM 44.6 °F 39.7 °F 42.8 °F 93% 29.98 in 0.8 mi NW 9.2 mph - 0.01 in Rain Light Rain
6:48 AM 44.6 °F 40.7 °F 42.8 °F 93% 29.99 in 1.0 mi NW 6.9 mph - 0.01 in Rain Light Rain
6:56 AM 44.1 °F 40.1 °F 42.1 °F 93% 30.00 in 1.0 mi NW 6.9 mph - 0.01 in Rain Light Rain
7:07 AM 44.6 °F 40.7 °F 42.8 °F 93% 29.99 in 1.2 mi NW 6.9 mph - 0.00 in Rain Light Rain
7:48 AM 44.6 °F 39.7 °F 41.0 °F 87% 30.00 in 2.5 mi NNW 9.2 mph - 0.02 in Rain Light Rain
7:56 AM 44.1 °F 40.1 °F 41.0 °F 89% 30.01 in 3.0 mi NW 6.9 mph - 0.02 in Rain Light Rain
8:24 AM 42.8 °F 39.3 °F 41.0 °F 93% 30.01 in 4.0 mi NW 5.8 mph - 0.05 in Rain Light Rain
8:56 AM 43.0 °F 38.8 °F 41.0 °F 93% 30.01 in 4.0 mi NNW 6.9 mph - 0.10 in Rain Light Rain
9:56 AM 43.0 °F 39.5 °F 41.0 °F 93% 29.97 in 5.0 mi North 5.8 mph - 0.06 in Rain Light Rain
10:25 AM 44.6 °F 40.7 °F 41.0 °F 87% 29.95 in 2.0 mi North 6.9 mph - 0.07 in Rain Heavy Rain
10:31 AM 44.6 °F 43.1 °F 42.8 °F 93% 29.95 in 1.8 mi North 3.5 mph - 0.09 in Rain Rain
10:44 AM 44.6 °F 43.1 °F 42.8 °F 93% 29.95 in 2.0 mi NNW 3.5 mph - 0.14 in Rain Rain
10:49 AM 44.6 °F 42.2 °F 42.8 °F 93% 29.95 in 3.0 mi North 4.6 mph - 0.14 in Rain Rain
10:56 AM 44.1 °F 42.5 °F 42.1 °F 93% 29.95 in 5.0 mi NNE 3.5 mph - 0.14 in Rain Light Rain
11:09 AM 44.6 °F 43.1 °F 42.8 °F 93% 29.93 in 2.5 mi ENE 3.5 mph - 0.03 in Rain Rain
11:30 AM 44.6 °F 43.1 °F 42.8 °F 93% 29.93 in 2.0 mi North 3.5 mph - 0.10 in Rain Rain
11:42 AM 44.6 °F 43.1 °F 42.8 °F 93% 29.92 in 4.0 mi NNW 3.5 mph - 0.11 in Rain Light Rain
11:56 AM 45.0 °F 41.8 °F 43.0 °F 93% 29.94 in 7.0 mi NW 5.8 mph - 0.12 in Rain Light Rain
12:12 PM 44.6 °F - 44.6 °F 100% 29.91 in 4.0 mi Calm Calm - 0.01 in Rain Light Rain
12:56 PM 46.0 °F 43.9 °F 44.1 °F 93% 29.91 in 5.0 mi NW 4.6 mph - 0.03 in   Overcast
1:10 PM 46.4 °F 45.2 °F 44.6 °F 93% 29.89 in 1.8 mi NNW 3.5 mph - 0.02 in Rain Light Rain
1:22 PM 46.4 °F 44.3 °F 44.6 °F 93% 29.89 in 3.0 mi West 4.6 mph - 0.02 in Rain Light Rain
1:56 PM 46.9 °F - 45.0 °F 93% 29.90 in 3.0 mi West 6.9 mph - 0.02 in   Overcast
2:10 PM 46.4 °F 42.9 °F 44.6 °F 93% 29.89 in 2.0 mi WNW 6.9 mph - 0.01 in Rain Light Rain
2:32 PM 46.4 °F 45.2 °F 46.4 °F 100% 29.88 in 1.8 mi WNW 3.5 mph - 0.01 in   Overcast
2:41 PM 48.2 °F - 46.4 °F 93% 29.87 in 2.5 mi NW 4.6 mph - 0.01 in   Overcast
2:56 PM 48.0 °F - 46.0 °F 93% 29.88 in 4.0 mi NW 4.6 mph - 0.01 in   Overcast
3:56 PM 48.9 °F - 46.0 °F 90% 29.87 in 5.0 mi WNW 6.9 mph - N/A   Overcast
4:56 PM 48.0 °F - 45.0 °F 89% 29.86 in 7.0 mi NW 6.9 mph - N/A   Overcast
5:56 PM 48.0 °F - 45.0 °F 89% 29.88 in 7.0 mi NW 4.6 mph - N/A   Overcast
6:56 PM 48.0 °F - 45.0 °F 89% 29.86 in 8.0 mi Calm Calm - N/A   Overcast
7:56 PM 46.9 °F - 45.0 °F 93% 29.86 in 4.0 mi Calm Calm - N/A   Overcast
8:56 PM 46.9 °F - 45.0 °F 93% 29.86 in 3.0 mi South 4.6 mph - N/A   Overcast
9:56 PM 46.9 °F - 45.0 °F 93% 29.90 in 4.0 mi SSW 4.6 mph - N/A   Overcast
10:56 PM 46.9 °F - 44.1 °F 90% 29.88 in 4.0 mi Calm Calm - N/A   Overcast
11:15 PM 46.4 °F 44.3 °F 44.6 °F 93% 29.87 in 2.5 mi West 4.6 mph - N/A   Overcast
11:56 PM 46.9 °F - 45.0 °F 93% 29.87 in 3.0 mi WSW 3.5 mph - 0.00 in Rain Light Rain